Temp
70 71 70 68 66 65 65 65 65 63 62 61 61 60 59 59 57 56 53 51 52 52
68 67 65 65 65 65 64 64 63 62 60 60 59 58 58 58 56 54 53 51 51 50
65 65 66 64 63 62 62 62 61 59 59 58 58 58 57 56 56 52 52 52 50 49
63 65 64 64 63 62 61 60 59 58 58 57 56 57 55 53 51 49 50 50 49 48
64 65 63 63 62 61 59 59 58 57 56 56 56 56 51 46 49 48 48 48 47 47
64 63 62 61 60 59 58 57 56 56 54 54 54 51 49 47 49 47 47 47 46 46
62 62 60 60 58 57 56 55 55 54 53 52 49 50 49 48 47 46 47 47 47 47
61 60 59 58 56 55 55 54 54 53 52 51 49 49 46 47 45 45 46 47 47 46
59 58 57 55 54 54 53 53 53 51 49 45 47 36 36 38 44 45 45 44 44 45
56 55 55 55 54 52 51 52 50 47 45 43 43 36 35 35 42 43 44 43 42 42
55 54 54 53 52 51 51 49 46 45 43 42 42 36 35 34 40 43 43 42 42 41
54 53 52 51 50 50 49 45 42 43 41 41 41 35 35 34 40 41 40 41 41 40
54 52 51 50 50 49 48 44 43 41 41 41 40 35 35 34 37 36 37 40 40 34
53 52 51 50 50 49 46 42 39 38 40 40 39 39 34 33 35 35 35 35 37 38
MSLP
1020.85 1021.00 1021.46 1021.76 1022.19 1022.43 1022.46 1022.56 1022.80 1023.16 1023.35 1023.35 1023.27 1023.11 1022.91 1022.51 1022.34 1022.55 1022.92 1023.03 1022.83 1022.64
1021.19 1021.57 1021.85 1022.07 1022.32 1022.44 1022.63 1022.66 1022.92 1023.19 1023.25 1023.16 1023.10 1022.96 1022.72 1022.23 1021.92 1022.16 1022.36 1022.43 1022.49 1022.62
1021.32 1021.69 1021.95 1022.23 1022.39 1022.66 1022.89 1023.06 1023.14 1023.14 1023.07 1022.91 1022.75 1022.50 1022.22 1021.94 1021.81 1022.14 1022.08 1022.13 1022.29 1022.29
1021.31 1021.54 1022.05 1022.17 1022.36 1022.68 1023.01 1023.08 1023.04 1022.95 1022.81 1022.64 1022.42 1022.01 1021.90 1022.37 1022.48 1022.36 1022.17 1022.24 1022.20 1022.21
1021.14 1021.42 1021.71 1021.98 1022.39 1022.68 1022.93 1023.04 1023.00 1022.85 1022.68 1022.48 1022.15 1021.86 1022.44 1022.86 1022.70 1022.34 1022.11 1022.16 1022.31 1022.27
1020.93 1021.31 1021.61 1022.00 1022.44 1022.66 1022.78 1022.93 1022.95 1022.68 1022.55 1022.34 1022.09 1022.35 1022.63 1022.66 1022.40 1022.58 1022.54 1022.43 1022.36 1022.25
1020.81 1021.22 1021.70 1022.07 1022.44 1022.64 1022.80 1022.83 1022.75 1022.68 1022.52 1022.31 1022.64 1022.69 1022.70 1022.65 1022.61 1022.61 1022.52 1022.41 1022.22 1022.01
1020.88 1021.42 1021.74 1022.08 1022.32 1022.52 1022.55 1022.50 1022.49 1022.33 1022.34 1022.42 1022.63 1022.87 1023.16 1022.95 1022.93 1022.69 1022.36 1022.12 1022.05 1022.01
1021.00 1021.32 1021.56 1021.89 1022.15 1022.20 1022.27 1022.25 1022.19 1022.28 1022.46 1022.87 1022.87 1023.76 1023.83 1023.90 1023.24 1022.79 1022.24 1022.13 1022.10 1022.02
1021.13 1021.37 1021.58 1021.75 1021.86 1022.04 1022.08 1021.99 1022.04 1022.45 1022.72 1022.91 1023.10 1023.91 1024.03 1024.13 1023.65 1022.87 1022.39 1022.24 1022.21 1022.08
1021.19 1021.34 1021.57 1021.67 1021.79 1021.88 1021.85 1021.86 1022.54 1022.49 1022.62 1022.88 1023.13 1023.67 1023.85 1024.14 1023.62 1022.67 1022.34 1022.24 1022.23 1022.09
1021.13 1021.24 1021.40 1021.51 1021.60 1021.73 1021.82 1022.30 1022.70 1022.82 1022.50 1022.49 1022.89 1023.54 1023.68 1023.93 1023.34 1022.66 1022.40 1022.26 1022.07 1022.06
1021.29 1021.23 1021.19 1021.27 1021.36 1021.46 1021.54 1021.99 1022.22 1022.35 1022.60 1022.29 1022.69 1023.25 1023.29 1023.55 1023.36 1022.87 1022.50 1022.15 1021.97 1022.18
1021.11 1020.97 1020.97 1021.02 1021.12 1021.05 1021.20 1021.82 1022.09 1022.35 1022.39 1022.06 1022.29 1022.52 1023.01 1023.29 1023.33 1022.91 1022.53 1022.37 1022.02 1021.95
Wind_Speed
5 2 2 3 4 5 6 6 9 9 10 12 13 12 12 10 8 9 9 11 11 8
4 1 4 4 4 5 5 6 8 10 11 12 12 13 14 10 10 8 10 7 9 8
3 4 4 4 5 4 5 7 9 10 11 12 13 13 13 11 10 10 9 7 10 8
5 4 5 5 4 5 6 9 10 11 12 13 13 13 9 11 14 11 11 9 9 9
5 5 5 5 5 5 8 9 10 12 12 12 13 10 7 7 12 12 8 7 9 9
5 5 5 5 5 7 8 10 11 12 12 13 11 10 8 8 9 8 8 8 8 10
5 5 5 5 6 8 9 10 11 10 11 12 8 10 9 8 7 6 7 8 10 12
4 5 6 6 7 8 10 10 10 11 8 10 8 5 6 8 5 7 10 10 10 10
5 5 6 7 8 9 10 10 10 10 9 8 6 6 7 7 8 11 10 9 10 10
5 6 7 9 9 9 10 11 9 8 7 8 3 5 3 4 8 10 8 9 9 10
6 7 8 9 10 10 10 8 9 8 7 6 2 8 4 4 10 8 8 8 9 10
7 8 9 10 10 9 10 7 7 8 8 7 5 8 5 4 8 8 8 9 9 7
8 9 10 10 10 9 8 7 7 7 7 5 6 12 8 4 6 7 7 8 9 6
9 10 10 9 9 10 8 6 6 5 7 8 6 6 10 6 5 6 6 7 7 6
Wind_Direction
153 195 287 303 294 300 308 313 317 311 309 304 303 301 298 293 293 295 295 288 286 293
154 236 305 290 286 286 308 301 308 312 305 304 305 302 298 288 291 288 277 287 298 276
136 255 263 261 271 301 302 310 308 309 305 304 303 299 297 298 316 312 303 308 291 290
251 212 235 266 292 306 313 306 310 307 307 304 302 293 313 318 306 300 295 294 294 297
209 228 250 268 286 306 305 308 306 308 306 303 298 315 327 285 281 285 292 304 298 299
236 254 270 281 294 303 308 307 310 309 309 303 319 323 305 296 291 293 293 314 310 298
261 271 275 283 293 306 307 307 305 310 310 323 305 287 291 296 302 321 305 299 295 316
262 255 260 277 298 298 299 299 298 293 307 313 308 352 2 330 311 295 286 315 309 310
272 262 269 290 287 289 298 296 295 315 321 303 289 79 54 344 319 310 308 310 314 312
257 273 279 286 292 297 296 289 303 300 295 300 258 140 98 338 307 301 309 311 315 315
262 269 283 291 291 291 298 315 311 286 284 256 239 171 157 297 291 300 303 314 309 305
284 287 292 291 293 299 304 308 288 295 289 261 226 183 171 274 303 299 317 307 300 328
292 288 289 292 292 300 290 288 276 285 291 281 264 189 184 228 296 306 297 305 312 97
290 289 287 288 287 288 300 288 275 255 263 268 253 254 192 198 275 286 315 304 306 312